Overview Statistics Trail Chart Weather Telemetry Raw packets
 

This is the latest recevied weather packets stored in our database for station/object KD7AWQ. If no packets are shown the sender has not sent any weather packets the latest 10 day(s).

<< 15 16 17 18 19 20 21 >>
Time Temp. Humidity Pressure Rain* Wind** Luminosity Snow
1788342173 23.33° C 46% 1188.9 hPa 0 mm - 0 W/m² -
1788341872 23.33° C 46% 1189 hPa 0 mm - 0 W/m² -
1788341567 23.33° C 45% 1189 hPa 0 mm - 0 W/m² -
1788341266 23.33° C 44% 1188.9 hPa 0 mm - 0 W/m² -
1788340962 23.89° C 43% 1188.9 hPa 0 mm - 0 W/m² -
1788340661 24.44° C 41% 1188.6 hPa 0 mm - 0 W/m² -
1788340358 24.44° C 40% 1189 hPa 0 mm - 0 W/m² -
1788340054 24.44° C 43% 1188.8 hPa 0 mm - 0 W/m² -
1788339753 24.44° C 43% 1188.7 hPa 0 mm - 0 W/m² -
1788339447 25° C 42% 1189 hPa 0 mm - 0 W/m² -
1788339143 25.56° C 38% 1188.9 hPa 0 mm - 0 W/m² -
1788338839 25.56° C 37% 1189 hPa 0 mm - 0 W/m² -
1788338535 25° C 38% 1189.1 hPa 0 mm - 0 W/m² -
1788338234 25° C 39% 1188.9 hPa 0 mm - 0 W/m² -
1788337935 25.56° C 40% 1188.9 hPa 0 mm - 0 W/m² -
1788337630 25.56° C 39% 1188.8 hPa 0 mm - 0 W/m² -
1788337327 25.56° C 38% 1189 hPa 0 mm - 0 W/m² -
1788337022 25° C 38% 1188.8 hPa 0 mm - 0 W/m² -
1788336717 25° C 37% 1189 hPa 0 mm - 0 W/m² -
1788336412 25° C 37% 1188.8 hPa 0 mm - 0 W/m² -
1788336109 25° C 39% 1188.8 hPa 0 mm - 0 W/m² -
1788335808 24.44° C 40% 1189 hPa 0 mm - 0 W/m² -
1788335505 24.44° C 40% 1188.8 hPa 0 mm - 0 W/m² -
1788335199 24.44° C 41% 1189.1 hPa 0 mm - 0 W/m² -
1788334895 25° C 41% 1189.1 hPa 0 mm - 0 W/m² -

* Rain latest hour (hover to see other rain measurements)
** Current wind speed in m/s (hover to see current wind gust speed)